Date String (YYYY-MM-DD hh:mm:ss) UTC,Instrument flags,Ambient pressure (hPa),Sample flow (lpm),Bypass flow (lpm),Sample temperature (°C),Ambient temperature (°C),ASC tube jacket temperature (°C),LED temperature (°C),Box temperature (°C),Sample RH (%),Span deviation,Mass concentration (μg/m³),Mass concentration (μg/m³),Mass concentration (μg/m³)
DateTimeUTC,F1_M11,P_M11,Q1_M11,Q2_M11,T1_M11,T2_M11,T3_M11,T4_M11,T5_M11,U1_M11,ZSPAN_M11,X0_M11,X2_M11,X1_M11
2023-05-01 08:00:00,,0828.0,5.00,0.00,26.6,24.8,00.0,35.2,28.1,15.2,0000.0,0013.49,0004.72,0003.20
2023-05-01 08:01:00,,0827.9,5.00,0.00,26.6,24.8,00.0,35.2,28.1,15.3,0000.0,0013.32,0004.66,0003.20
2023-05-01 08:02:00,,0827.9,5.01,0.00,26.6,24.8,00.0,35.2,28.1,15.3,0000.0,0012.99,0004.57,0003.20
2023-05-01 08:03:00,,0827.8,5.00,0.00,26.6,24.8,00.0,35.1,28.1,15.4,0000.0,0013.22,0004.62,0003.20
2023-05-01 08:04:00,,0827.8,5.00,0.00,26.6,24.8,00.0,35.1,28.0,15.4,0000.0,0013.44,0004.69,0003.23
2023-05-01 08:05:00,,0827.9,4.99,0.00,26.6,24.8,00.0,35.1,28.1,15.4,0000.0,0012.65,0004.68,0003.24
2023-05-01 08:06:00,,0827.8,5.00,0.00,26.5,24.7,00.0,35.1,28.0,15.4,0000.0,0011.56,0004.68,0003.25
2023-05-01 08:07:00,,0827.8,5.00,0.00,26.5,24.7,00.0,35.1,28.0,15.4,0000.0,0011.20,0004.73,0003.27
2023-05-01 08:08:00,,0827.8,5.00,0.00,26.5,24.7,00.0,35.0,28.1,15.4,0000.0,0011.56,0004.71,0003.26
2023-05-01 08:09:00,,0827.8,5.00,0.00,26.5,24.7,00.0,35.0,28.0,15.4,0000.0,0011.74,0004.62,0003.25
2023-05-01 08:10:00,,0827.8,5.01,0.00,26.5,24.7,00.0,35.0,28.0,15.4,0000.0,0011.35,0004.65,0003.25
2023-05-01 08:11:00,,0827.9,5.00,0.00,26.5,24.7,00.0,35.0,28.0,15.4,0000.0,0011.41,0004.68,0003.27
2023-05-01 08:12:00,,0827.8,5.01,0.00,26.4,24.7,00.0,35.0,28.0,15.4,0000.0,0011.51,0004.72,0003.28
2023-05-01 08:13:00,,0827.7,5.00,0.00,26.4,24.7,00.0,35.0,28.0,15.4,0000.0,0011.81,0004.81,0003.28
2023-05-01 08:14:00,,0827.7,5.00,0.00,26.4,24.7,00.0,35.0,28.0,15.4,0000.0,0011.92,0004.92,0003.30
2023-05-01 08:15:00,,0827.8,5.00,0.00,26.4,24.7,00.0,34.9,27.9,15.4,0000.0,0012.12,0004.94,0003.30
2023-05-01 08:16:00,,0827.8,5.00,0.00,26.4,24.6,00.0,34.9,27.9,15.4,0000.0,0012.12,0004.90,0003.30
2023-05-01 08:17:00,,0827.8,5.00,0.00,26.4,24.6,00.0,34.9,27.9,15.4,0000.0,0012.14,0004.92,0003.30
2023-05-01 08:18:00,,0827.8,5.00,0.00,26.4,24.6,00.0,34.9,27.9,15.5,0000.0,0012.09,0004.90,0003.29
2023-05-01 08:19:00,,0827.8,5.00,0.00,26.4,24.5,00.0,34.9,27.8,15.4,0000.0,0011.67,0004.91,0003.30
2023-05-01 08:20:00,,0827.8,5.00,0.00,26.3,24.6,00.0,34.9,27.8,15.8,0000.0,0011.19,0004.93,0003.31
2023-05-01 08:21:00,,0827.8,5.00,0.00,26.4,24.6,00.0,34.9,27.9,16.1,0000.0,0010.96,0004.87,0003.31
2023-05-01 08:22:00,,0827.8,5.00,0.00,26.4,24.7,00.0,34.8,27.9,16.0,0000.0,0011.31,0004.84,0003.29
2023-05-01 08:23:00,,0827.8,5.00,0.00,26.4,24.8,00.0,34.8,28.0,16.1,0000.0,0011.87,0004.84,0003.29
2023-05-01 08:24:00,,0827.8,4.99,0.00,26.4,25.0,00.0,34.9,28.0,15.9,0000.0,0011.60,0004.77,0003.29
2023-05-01 08:25:00,,0827.8,5.00,0.00,26.5,25.0,00.0,34.9,28.0,15.7,0000.0,0012.66,0004.66,0003.27
2023-05-01 08:26:00,,0827.8,5.00,0.00,26.5,25.1,00.0,34.9,28.1,15.6,0000.0,0012.51,0004.55,0003.25
2023-05-01 08:27:00,,0827.8,5.00,0.00,26.5,25.2,00.0,34.9,28.1,15.7,0000.0,0012.26,0004.52,0003.23
2023-05-01 08:28:00,,0827.8,5.00,0.00,26.5,25.3,00.0,34.9,28.2,16.0,0000.0,0012.35,0004.54,0003.23
2023-05-01 08:29:00,,0827.8,5.00,0.00,26.6,25.3,00.0,34.9,28.2,16.2,0000.0,0012.38,0004.55,0003.23
2023-05-01 08:30:00,,0827.7,5.00,0.00,26.6,25.4,00.0,34.9,28.2,16.3,0000.0,0012.96,0004.59,0003.24
2023-05-01 08:31:00,,0827.8,4.99,0.00,26.6,25.4,00.0,34.9,28.2,16.3,0000.0,0013.66,0004.63,0003.25
2023-05-01 08:32:00,,0827.8,4.99,0.00,26.6,25.4,00.0,35.0,28.2,16.3,0000.0,0014.08,0004.66,0003.25
2023-05-01 08:33:00,,0827.7,5.01,0.00,26.7,25.5,00.0,35.0,28.3,16.4,0000.0,0013.95,0004.70,0003.27
2023-05-01 08:34:00,,0827.8,5.00,0.00,26.7,25.5,00.0,35.0,28.3,16.4,0000.0,0014.41,0004.69,0003.29
2023-05-01 08:35:00,,0827.8,4.99,0.00,26.7,25.5,00.0,35.0,28.3,16.5,0000.0,0015.16,0004.72,0003.30
2023-05-01 08:36:00,,0827.8,5.02,0.00,26.7,25.5,00.0,35.0,28.3,16.5,0000.0,0014.81,0004.79,0003.33
2023-05-01 08:37:00,,0827.8,5.00,0.00,26.7,25.5,00.0,35.0,28.3,16.5,0000.0,0015.06,0004.92,0003.37
2023-05-01 08:38:00,,0827.8,4.98,0.00,26.8,25.5,00.0,35.0,28.4,16.5,0000.0,0015.59,0004.99,0003.40
2023-05-01 08:39:00,,0827.8,4.99,0.00,26.8,25.5,00.0,35.1,28.4,16.5,0000.0,0016.31,0004.97,0003.41
2023-05-01 08:40:00,,0827.7,5.00,0.00,26.8,25.5,00.0,35.1,28.4,16.4,0000.0,0016.17,0004.99,0003.43
2023-05-01 08:41:00,,0827.8,5.01,0.00,26.8,25.5,00.0,35.1,28.4,16.3,0000.0,0016.21,0004.97,0003.44
2023-05-01 08:42:00,,0827.8,5.01,0.00,26.8,25.5,00.0,35.1,28.4,16.3,0000.0,0015.57,0005.02,0003.45
2023-05-01 08:43:00,,0827.8,5.00,0.00,26.8,25.5,00.0,35.1,28.4,16.3,0000.0,0015.52,0005.11,0003.46
2023-05-01 08:44:00,,0827.7,5.00,0.00,26.8,25.5,00.0,35.1,28.4,16.2,0000.0,0016.83,0005.16,0003.46
2023-05-01 08:45:00,,0827.7,4.99,0.00,26.8,25.5,00.0,35.1,28.5,16.2,0000.0,0017.61,0005.18,0003.46
2023-05-01 08:46:00,,0827.7,4.99,0.00,26.8,25.5,00.0,35.1,28.5,16.2,0000.0,0017.70,0005.27,0003.46
2023-05-01 08:47:00,,0827.7,5.01,0.00,26.8,25.5,00.0,35.2,28.5,16.2,0000.0,0017.55,0005.31,0003.47
2023-05-01 08:48:00,,0827.7,5.01,0.00,26.9,25.5,00.0,35.2,28.5,16.2,0000.0,0017.17,0005.29,0003.46
2023-05-01 08:49:00,,0827.8,5.00,0.00,26.9,25.5,00.0,35.2,28.5,16.1,0000.0,0017.62,0005.27,0003.44
2023-05-01 08:50:00,,0827.8,5.00,0.00,26.9,25.5,00.0,35.2,28.5,16.1,0000.0,0017.66,0005.32,0003.45
2023-05-01 08:51:00,,0827.7,4.99,0.00,26.9,25.5,00.0,35.2,28.5,16.1,0000.0,0017.69,0005.33,0003.44
2023-05-01 08:52:00,,0827.7,5.01,0.00,26.9,25.5,00.0,35.2,28.5,16.0,0000.0,0017.64,0005.36,0003.43
2023-05-01 08:53:00,,0827.7,5.01,0.00,26.9,25.4,00.0,35.2,28.5,16.0,0000.0,0017.72,0005.32,0003.42
2023-05-01 08:54:00,,0827.7,5.00,0.00,26.9,25.4,00.0,35.2,28.5,16.0,0000.0,0018.07,0005.23,0003.42
2023-05-01 08:55:00,,0827.7,4.99,0.00,26.9,25.4,00.0,35.2,28.5,16.0,0000.0,0017.32,0005.18,0003.43
2023-05-01 08:56:00,,0827.7,5.00,0.00,26.9,25.4,00.0,35.2,28.5,16.0,0000.0,0016.97,0005.18,0003.44
2023-05-01 08:57:00,,0827.8,5.00,0.00,26.9,25.4,00.0,35.2,28.5,16.0,0000.0,0016.40,0005.15,0003.45
2023-05-01 08:58:00,,0827.8,5.00,0.00,26.9,25.4,00.0,35.2,28.5,16.1,0000.0,0016.26,0005.08,0003.45
2023-05-01 08:59:00,,0827.8,5.00,0.00,26.9,25.4,00.0,35.2,28.5,16.1,0000.0,0015.82,0005.08,0003.46
